Location: Goll?ig?dem
(16.6773°N, 80.7332°E)
Time: 06:52:02
(UTC+00:00)

IRS-1C Rocket - Pass Details

Date: 21 April 2021
Orbit: 800 x 806 km, 99.0° (Epoch: 05 May)

Event Time Altitude Azimuth Distance (km) Brightness Sun altitude
Rises 13:29:34 0° 164° (SSE) 3,308 7.0 -9.1°
Reaches altitude 10° 13:31:53 10° 162° (SSE) 2,378 6.2 -9.6°
Maximum altitude 13:37:08 78° 77° (ENE) 824 4.0 -10.8°
Drops below altitude 10° 13:42:24 10° 351° (N) 2,379 6.9 -12.0°
Sets 13:44:43 0° 350° (N) 3,309 7.7 -12.6°
